Regional Weather Roundup
Issued by NWS

Home | Current Version | Previous Version | Graphics & Text | Print | Product List | Glossary On
Versions: 1 2 3 4 5 6 7 8 9 10 11 12 13 14 15 16 17 18 19 20 21 22 23 24 25 26 27 28 29 30 31 32 33 34 35 36 37 38 39 40 41 42 43 44 45 46 47 48 49 50
000
ASUS43 KTOP 290408
RWRKS

WEATHER ROUNDUP FOR KANSAS
NATIONAL WEATHER SERVICE GOODLAND KS
1100 PM CDT SUN AUG 28 2016

NOTE:  "FAIR" INDICATES FEW OR NO CLOUDS BELOW 12,000 FEET WITH NO
SIGNIFICANT WEATHER AND/OR OBSTRUCTIONS TO VISIBILITY.

KSZ001>006-013>018-027>032-041>047-290500-
NORTHWEST KANSAS

CITY           SKY/WX    TMP DP  RH WIND       PRES   REMARKS
GOODLAND       PTCLDY    67  61  81 S7        30.16R
HAYS           CLOUDY    70  57  64 S3        30.13R
HILL CITY      PTCLDY    72  64  76 S6        30.14R
RUSSELL        PTCLDY    69  66  90 S5        30.12R
$$

KSZ061>065-074>080-084>089-290500-
SOUTHWEST KANSAS

CITY           SKY/WX    TMP DP  RH WIND       PRES   REMARKS
DODGE CITY     CLOUDY    67  64  90 S7        30.15R
ELKHART          N/A     65  58  78 S10         N/A
GARDEN CITY    CLOUDY    68  62  81 SE9       30.16R
GREAT BEND     PTCLDY    72  61  68 CALM      30.13R
LIBERAL        CLOUDY    70  59  68 SE9       30.16S
PRATT          CLOUDY    67  64  89 S8        30.13R
$$

KSZ066>073-081>083-090>101-290500-
SOUTHEAST KANSAS

CITY           SKY/WX    TMP DP  RH WIND       PRES   REMARKS
CHANUTE        CLEAR     75  70  84 E5        30.12R
COFFEYVILLE    CLEAR     76  67  73 SE3       30.10R
HUTCHINSON     PTCLDY    70  67  90 CALM      30.11R
MEDICINE LODGE   N/A     69  66  90 SE3       30.11R
NEWTON         CLOUDY    73  69  87 E8        30.12R
PARSONS        CLEAR     74  71  91 CALM      30.12R
WICHITA INTL   MOCLDY    76  70  82 SE8       30.09R
WICHITA JABRA  PTCLDY    74  70  87 SE5       30.10R
WICHITA MCCONL CLOUDY    77  69  77 SE8       30.10R
WINFIELD       PTCLDY    77  72  84 E6        30.11R
$$

KSZ007>012-019>026-033>040-048>060-102>105-290500-
NORTHEAST KANSAS

CITY           SKY/WX    TMP DP  RH WIND       PRES   REMARKS
CONCORDIA      CLOUDY    71  67  87 E10       30.15R
EMPORIA        PTCLDY    73  70  90 E6        30.12S
LAWRENCE       CLOUDY    75  70  84 E7        30.14S
MANHATTAN      MOCLDY    74  70  87 NE5       30.13R
MARYSVILLE     LGT RAIN  72  70  94 SE6       30.14S
OLATHE IND     PTCLDY    74  69  85 NE6       30.15S
OLATHE EXE     CLOUDY    75  68  78 N7        30.15S
SALINA         CLOUDY    77  69  76 E3        30.12R
TOPEKA BILLARD CLOUDY    77  71  82 E14       30.14R
TOPEKA FORBES  CLOUDY    78  73  84 NE5       30.14R
$$




USA.gov is the U.S. government's official web portal to all federal, state and local government web resources and services.